Location: Campillo
(40.8621°N, 4.2488°W)
Time: 12:30:53
(UTC+00:00)

USA 307 - Visible Passes

Search period start: 24 September 2021 00:00
Search period end: 04 October 2021 00:00
Orbit: 565 x 575 km, 54.0° (Epoch: 22 September)

Date Brightness Start Highest point End Pass type
(mag) Time Alt. Az. Time Alt. Az. Time Alt. Az.
24 Sep 5.3 19:04:17 10° NNW 19:06:32 14° N 19:08:46 10° NNE visible
24 Sep 5.1 20:44:15 10° NNW 20:46:19 20° N 20:46:19 20° N visible
25 Sep 5.2 19:05:32 10° NNW 19:07:55 14° N 19:10:17 10° NE visible
25 Sep 5.0 20:45:12 10° NW 20:47:12 22° NNW 20:47:12 22° NNW visible
26 Sep 5.1 19:06:40 10° NNW 19:09:17 16° NNE 19:11:54 10° NE visible
26 Sep 4.9 20:46:08 10° NW 20:48:07 24° NNW 20:48:07 24° NNW visible
27 Sep 4.9 19:07:40 10° NNW 19:10:37 18° NNE 19:13:00 12° NE visible
27 Sep 4.9 20:47:05 10° NW 20:49:04 25° NNW 20:49:04 25° NNW visible
28 Sep 4.6 19:08:37 10° NNW 19:11:55 21° NNE 19:13:58 15° ENE visible
28 Sep 4.9 20:48:06 10° NW 20:50:02 26° NW 20:50:02 26° NW visible
29 Sep 4.2 19:09:32 10° NNW 19:13:10 26° NNE 19:15:00 19° ENE visible
29 Sep 5.0 20:49:10 10° NW 20:51:04 25° WNW 20:51:04 25° WNW visible
30 Sep 3.8 19:10:27 10° NW 19:14:21 34° NNE 19:16:06 24° ENE visible
30 Sep 5.1 20:50:19 10° WNW 20:52:10 23° WNW 20:52:10 23° WNW visible
01 Oct 3.3 19:11:22 10° NW 19:15:29 46° NE 19:17:16 29° E visible
01 Oct 5.3 20:51:38 10° WNW 20:53:20 20° W 20:53:20 20° W visible
02 Oct 2.9 19:12:19 10° NW 19:16:34 67° NE 19:18:31 30° ESE visible
02 Oct 5.6 20:53:12 10° W 20:54:36 15° W 20:54:36 15° W visible
03 Oct 2.9 19:13:19 10° NW 19:17:35 82° SW 19:19:54 26° SE visible
03 Oct 5.9 20:55:39 10° WSW 20:55:59 10° WSW 20:55:59 10° WSW visible
